DW4699 Weather Reports


Display with metric or nautical units.
time (UTC)temp
F
wind
direction
speed
MPH
gust
MPH
rain 1hr
in
rain 24hr
in
rain mn
in
humidity
%
barometer
mb
20190120232320 24 340 4.0 10.0 0.00 0.00 0.00 52 1009.7
20190120231835 24 3 3.0 12.0 0.00 0.00 0.00 53 1009.3
20190120231323 25 3 2.0 13.0 0.00 0.00 0.00 52 1009.2
20190120230816 25 231 5.0 17.0 0.00 0.00 0.00 52 1009.1
20190120230329 25 236 8.0 17.0 0.00 0.00 0.00 54 1008.9
20190120225822 25 6 4.0 10.0 0.00 0.00 0.00 58 1008.7
20190120225335 25 219 3.0 10.0 0.00 0.00 0.00 59 1008.5
20190120224829 25 12 2.0 11.0 0.00 0.00 0.00 59 1008.2
20190120224319 26 265 1.0 11.0 0.00 0.00 0.00 59 1008.2
20190120223818 26 310 4.0 13.0 0.00 0.00 0.00 58 1008.0
20190120223330 26 279 3.0 13.0 0.00 0.00 0.00 58 1007.8
20190120222823 26 242 4.0 11.0 0.00 0.00 0.00 57 1007.8
20190120222333 26 218 4.0 13.0 0.00 0.00 0.00 57 1007.4
20190120221821 26 350 3.0 13.0 0.00 0.00 0.00 55 1007.3
20190120221334 26 239 5.0 12.0 0.00 0.00 0.00 55 1007.2
20190120220827 26 17 4.0 9.0 0.00 0.00 0.00 57 1007.1
20190120220316 26 298 3.0 12.0 0.00 0.00 0.00 58 1006.9
20190120215829 26 142 3.0 12.0 0.00 0.00 0.00 58 1006.7
20190120215327 27 229 5.0 13.0 0.00 0.00 0.00 57 1006.4
20190120214839 27 227 5.0 13.0 0.00 0.00 0.00 57 1006.3
20190120214333 27 295 5.0 13.0 0.00 0.00 0.00 58 1006.1
20190120213830 27 234 5.0 13.0 0.00 0.00 0.00 57 1005.8
20190120213337 27 334 5.0 16.0 0.00 0.00 0.00 58 1005.6
20190120212826 28 224 5.0 16.0 0.00 0.00 0.00 57 1005.6
20190120212321 28 226 4.0 16.0 0.00 0.00 0.00 58 1005.5
20190120211837 28 305 5.0 16.0 0.00 0.00 0.00 59 1005.3
20190120211331 29 226 4.0 14.0 0.00 0.00 0.00 61 1005.3
20190120210820 29 244 2.0 14.0 0.00 0.00 0.00 60 1005.2
20190120210333 29 242 4.0 20.0 0.00 0.00 0.00 61 1005.2
20190120205826 29 9 6.0 20.0 0.00 0.00 0.00 61 1005.2
20190120205339 29 195 2.0 17.0 0.00 0.00 0.00 62 1005.0
20190120204831 29 3 2.0 17.0 0.00 0.00 0.00 62 1004.7
20190120204324 29 213 3.0 9.0 0.00 0.00 0.00 61 1004.5
20190120203838 29 248 4.0 13.0 0.00 0.00 0.00 61 1004.6
20190120203327 30 1 5.0 13.0 0.00 0.00 0.00 62 1004.5
20190120202820 30 288 1.0 9.0 0.00 0.00 0.00 63 1004.3
20190120201828 30 7 4.0 9.0 0.00 0.00 0.00 63 1004.0
20190120201320 30 15 4.0 9.0 0.00 0.00 0.00 62 1004.2
20190120200837 30 9 3.0 10.0 0.00 0.00 0.00 64 1004.0
20190120200326 30 234 1.0 12.0 0.00 0.00 0.00 65 1003.6
20190120195822 30 203 5.0 14.0 0.00 0.00 0.00 64 1003.4
20190120195335 30 221 3.0 14.0 0.00 0.00 0.00 64 1002.9
20190120194825 30 233 5.0 11.0 0.00 0.00 0.00 64 1002.9
20190120194318 30 226 5.0 14.0 0.00 0.00 0.00 63 1002.9
20190120193850 31 248 6.0 14.0 0.00 0.00 0.00 63 1002.6
20190120193319 30 68 3.0 16.0 0.00 0.00 0.00 64 1002.4
20190120192836 30 306 6.0 16.0 0.00 0.00 0.00 64 1002.4
20190120192331 30 313 5.0 14.0 0.00 0.00 0.00 64 1002.5
20190120191835 31 213 5.0 14.0 0.00 0.00 0.00 64 1002.5
20190120191326 31 260 3.0 12.0 0.00 0.00 0.00 64 1002.4
20190120190839 31 226 5.0 12.0 0.00 0.00 0.00 63 1002.3
20190120190328 32 225 5.0 14.0 0.00 0.00 0.00 65 1001.8
20190120185824 32 5 3.0 12.0 0.00 0.00 0.00 67 1001.8
20190120185337 32 328 4.0 11.0 0.00 0.00 0.00 65 1001.4
20190120184831 32 226 3.0 13.0 0.00 0.00 0.00 66 1001.4
20190120184324 31 223 5.0 13.0 0.00 0.00 0.00 67 1001.3
20190120183837 32 221 4.0 9.0 0.00 0.00 0.00 67 1001.3
20190120183329 32 230 5.0 11.0 0.00 0.00 0.00 67 1001.2
20190120182822 32 334 4.0 11.0 0.00 0.00 0.00 66 1001.1
20190120182335 32 354 4.0 8.0 0.00 0.00 0.00 67 1001.0
20190120181823 33 280 4.0 12.0 0.00 0.00 0.00 67 1000.7
20190120181336 32 233 4.0 12.0 0.00 0.00 0.00 67 1000.7
20190120180833 33 19 3.0 10.0 0.00 0.00 0.00 67 1000.8
20190120180323 33 319 2.0 8.0 0.00 0.00 0.00 70 1000.8
20190120175835 32 336 1.0 12.0 0.00 0.00 0.00 68 1000.7
20190120175327 32 13 4.0 12.0 0.00 0.00 0.00 68 1000.7
20190120174817 32 235 5.0 9.0 0.00 0.00 0.00 68 1000.5
20190120174330 33 294 3.0 8.0 0.00 0.00 0.00 69 1000.6
20190120173823 33 313 3.0 8.0 0.00 0.00 0.00 69 1000.7
20190120173333 33 221 4.0 8.0 0.00 0.00 0.00 70 1000.3
20190120172828 33 336 3.0 14.0 0.00 0.00 0.00 69 1000.0
20190120172341 33 13 5.0 14.0 0.00 0.00 0.00 69 1000.0
20190120171836 33 240 6.0 13.0 0.00 0.00 0.00 67 999.9
20190120171329 34 354 3.0 10.0 0.00 0.00 0.00 69 999.9
20190120170823 34 267 1.0 12.0 0.00 0.00 0.00 69 1000.3
20190120170335 34 233 4.0 12.0 0.00 0.00 0.00 69 1000.4
20190120165824 34 1 2.0 10.0 0.00 0.00 0.00 72 1000.0
20190120165317 34 234 4.0 11.0 0.00 0.00 0.00 71 999.8
20190120164834 34 227 3.0 11.0 0.00 0.00 0.00 72 999.9
20190120164327 34 284 4.0 11.0 0.00 0.00 0.00 73 999.7
20190120163817 34 223 6.0 17.0 0.00 0.00 0.00 73 999.5
20190120163334 34 213 6.0 15.0 0.00 0.00 0.00 71 999.5
20190120162828 34 34 4.0 15.0 0.00 0.00 0.00 72 999.5
20190120162322 35 203 7.0 15.0 0.00 0.00 0.00 73 999.3
20190120161831 35 237 3.0 14.0 0.00 0.00 0.00 74 999.3
20190120161328 35 236 3.0 14.0 0.00 0.00 0.00 75 998.9
20190120160840 35 211 4.0 10.0 0.00 0.00 0.00 75 999.0
20190120160329 35 240 3.0 11.0 0.00 0.00 0.00 76 998.9
20190120155824 35 256 2.0 12.0 0.00 0.00 0.00 77 998.9
20190120155337 35 217 5.0 12.0 0.00 0.00 0.00 76 999.1
20190120154826 35 224 3.0 13.0 0.00 0.00 0.00 76 998.9
20190120154319 36 229 5.0 13.0 0.00 0.00 0.00 75 998.7
20190120153832 36 253 3.0 11.0 0.00 0.00 0.00 76 998.5
20190120153325 36 349 4.0 14.0 0.00 0.00 0.00 77 997.9
20190120152818 36 115 5.0 19.0 0.00 0.00 0.00 77 997.8
20190120152331 37 176 3.0 19.0 0.00 0.00 0.00 82 997.4
20190120151820 37 225 5.0 12.0 0.00 0.00 0.00 81 997.1
20190120151333 37 205 5.0 12.0 0.00 0.00 0.00 82 996.9
20190120150826 37 230 4.0 14.0 0.00 0.00 0.00 84 996.8
20190120150340 37 189 2.0 14.0 0.00 0.00 0.00 84 996.7
20190120145833 38 228 5.0 13.0 0.00 0.00 0.00 85 996.5
20190120145326 38 220 4.0 13.0 0.00 0.00 0.00 87 996.5
20190120144830 38 211 4.0 11.0 0.00 0.00 0.00 89 996.3
20190120144330 38 251 2.0 11.0 0.00 0.00 0.00 91 995.9
20190120143840 38 346 3.0 13.0 0.00 0.00 0.00 94 995.7
20190120143329 38 248 4.0 13.0 0.00 0.00 0.00 96 995.3
20190120142822 38 213 3.0 13.0 0.00 0.00 0.00 96 995.2
20190120142334 38 200 6.0 9.0 0.00 0.00 0.00 97 995.1
20190120141823 38 223 4.0 10.0 0.00 0.00 0.00 97 995.2
20190120141336 38 236 4.0 10.0 0.00 0.00 0.00 97 995.0
20190120140829 37 226 3.0 7.0 0.00 0.00 0.00 97 994.9
20190120140326 37 222 2.0 8.0 0.00 0.00 0.00 97 994.7
20190120135819 37 356 3.0 9.0 0.00 0.00 0.00 97 994.7
20190120135332 37 217 4.0 9.0 0.00 0.00 0.00 97 994.7
20190120134824 37 253 3.0 9.0 0.00 0.00 0.00 97 994.5
20190120134317 37 228 3.0 7.0 0.00 0.00 0.00 97 994.3
20190120133830 37 213 4.0 7.0 0.00 0.00 0.00 97 994.4
20190120133323 36 213 4.0 6.0 0.00 0.00 0.00 97 994.3
20190120132815 36 214 1.0 4.0 0.00 0.00 0.00 97 993.9
20190120132335 36 215 1.0 6.0 0.00 0.00 0.00 97 993.8
20190120131824 36 196 2.0 6.0 0.00 0.00 0.00 97 993.6
20190120131317 36 251 1.0 6.0 0.00 0.00 0.00 97 993.6
20190120130830 35 196 1.0 6.0 0.00 0.00 0.00 97 993.4
20190120130320 35 209 1.0 6.0 0.00 0.00 0.00 97 993.1
20190120125832 35 209 2.0 6.0 0.00 0.00 0.00 97 992.8
20190120125346 35 284 0.0 2.0 0.00 0.00 0.00 97 992.7
20190120124334 35 284 0.0 1.0 0.00 0.00 0.00 97 992.3
20190120123829 35 284 0.0 1.0 0.00 0.00 0.00 97 992.3
20190120123317 35 284 0.0 1.0 0.00 0.00 0.00 97 992.3
20190120122834 35 284 0.0 1.0 0.00 0.00 0.00 97 992.4
20190120122322 35 284 0.0 1.0 0.00 0.00 0.00 97 992.0
20190120121835 35 284 0.0 1.0 0.00 0.00 0.00 97 992.0
20190120121328 35 284 0.0 1.0 0.00 0.00 0.00 97 991.9
20190120120824 35 284 0.0 1.0 0.00 0.00 0.00 97 991.6
20190120120333 35 284 0.0 1.0 0.00 0.00 0.00 97 991.6
20190120115826 35 284 0.0 2.0 0.00 0.00 0.00 97 991.4
20190120115325 35 284 1.0 2.0 0.00 0.00 0.00 97 991.6
20190120114838 34 284 0.0 2.0 0.00 0.00 0.00 97 991.7
20190120114333 34 284 1.0 2.0 0.00 0.00 0.00 97 992.2
20190120113827 34 284 0.0 2.0 0.00 0.00 0.00 97 991.8
20190120113334 34 284 0.0 2.0 0.00 0.00 0.00 97 991.9
20190120112824 34 284 0.0 0.0 0.00 0.00 0.00 97 991.3
20190120112340 34 284 0.0 0.0 0.00 0.00 0.00 97 991.2
20190120111834 34 284 0.0 0.0 0.00 0.00 0.00 97 991.4
20190120111322 34 284 0.0 1.0 0.00 0.00 0.00 97 991.4
20190120110815 34 284 0.0 1.0 0.00 0.00 0.00 97 991.4
20190120110331 34 284 0.0 0.0 0.00 0.00 0.00 97 991.4
20190120105831 34 284 0.0 0.0 0.00 0.00 0.00 97 991.5
20190120105326 34 284 0.0 1.0 0.00 0.00 0.00 97 991.5
20190120104839 34 284 0.0 1.0 0.00 0.00 0.00 97 991.9
20190120104333 34 284 0.0 1.0 0.00 0.00 0.00 97 991.8
20190120103828 34 284 0.0 1.0 0.00 0.00 0.00 97 991.8
20190120103337 34 284 0.0 0.0 0.00 0.00 0.00 97 991.7
20190120102830 34 284 0.0 2.0 0.00 0.00 0.00 97 992.2
20190120102319 34 284 0.0 2.0 0.00 0.00 0.00 97 992.3
20190120101831 34 284 0.0 0.0 0.00 0.00 0.00 97 992.3
20190120101324 34 284 0.0 1.0 0.00 0.00 0.00 97 992.5
20190120100837 34 284 0.0 1.0 0.00 0.00 0.00 97 992.1
20190120100333 34 284 0.0 1.0 0.00 0.00 0.00 97 992.7
20190120095821 34 284 0.0 1.0 0.00 0.00 0.00 97 992.8
20190120095320 34 284 0.0 2.0 0.00 0.00 0.00 97 993.0
20190120094837 34 284 1.0 2.0 0.00 0.00 0.00 97 993.0
20190120094331 34 284 0.0 2.0 0.00 0.00 0.00 96 993.2
20190120093820 34 284 0.0 2.0 0.00 0.00 0.00 96 993.4
20190120092825 35 284 0.0 2.0 0.00 0.00 0.00 96 993.1
20190120092338 35 284 0.0 3.0 0.00 0.00 0.00 96 993.5
20190120091826 35 285 0.0 3.0 0.00 0.00 0.00 97 993.3
20190120091322 35 284 1.0 3.0 0.00 0.00 0.00 97 993.7
20190120090835 35 232 0.0 2.0 0.00 0.00 0.00 97 994.3
20190120090330 35 232 0.0 4.0 0.00 0.00 0.00 96 994.5
20190120085830 35 232 2.0 4.0 0.00 0.00 0.00 97 994.6
20190120085318 35 233 0.0 4.0 0.00 0.00 0.00 97 994.3
20190120084835 35 233 0.0 5.0 0.00 0.00 0.00 96 994.4
20190120084324 35 235 2.0 5.0 0.00 0.00 0.00 96 994.6
20190120083818 35 243 4.0 5.0 0.00 0.00 0.00 97 993.7
20190120083338 35 38 0.0 3.0 0.00 0.00 0.00 97 993.2
20190120082831 36 6 0.0 2.0 0.00 0.00 0.00 97 995.3
20190120082320 36 9 0.0 2.0 0.00 0.00 0.00 96 995.5
20190120081832 36 10 0.0 2.0 0.00 0.00 0.00 96 995.5
20190120081327 36 11 0.0 2.0 0.00 0.00 0.00 96 995.4
20190120080822 36 251 0.0 2.0 0.00 0.00 0.00 96 996.0
20190120080332 36 251 0.0 1.0 0.00 0.00 0.00 96 996.1
20190120075830 36 251 0.0 1.0 0.00 0.00 0.00 96 996.1
20190120075343 36 251 0.0 5.0 0.00 0.00 0.00 96 995.8
20190120074838 35 251 0.0 5.0 0.00 0.00 0.00 96 995.6
20190120074332 35 282 0.0 1.0 0.00 0.00 0.00 96 993.8
20190120073830 35 282 0.0 1.0 0.00 0.00 0.00 96 995.5
20190120073337 35 282 1.0 1.0 0.00 0.00 0.00 96 996.9
20190120072826 35 282 0.0 0.0 0.00 0.00 0.00 96 997.0
20190120072321 35 282 0.0 1.0 0.00 0.00 0.00 96 997.2
20190120071833 35 282 0.0 2.0 0.00 0.00 0.00 96 997.2
20190120071326 35 282 0.0 2.0 0.00 0.00 0.00 96 997.6
20190120070838 35 282 0.0 2.0 0.00 0.00 0.00 96 997.6
20190120070326 35 282 0.0 1.0 0.00 0.00 0.00 96 997.7
20190120065826 35 282 0.0 0.0 0.00 0.00 0.00 96 997.8
20190120065339 35 282 0.0 0.0 0.00 0.00 0.00 96 998.3
20190120064828 35 282 0.0 0.0 0.00 0.00 0.00 96 998.7
20190120064321 35 282 0.0 0.0 0.00 0.00 0.00 96 999.0
20190120063832 35 282 0.0 0.0 0.00 0.00 0.00 96 999.3
20190120063325 35 282 0.0 0.0 0.00 0.00 0.00 96 999.5
20190120062818 35 282 0.0 0.0 0.00 0.00 0.00 96 999.7
20190120062330 35 282 0.0 0.0 0.00 0.00 0.00 96 1000.0
20190120061827 35 282 0.0 0.0 0.00 0.00 0.00 96 1000.2
20190120061320 35 282 0.0 2.0 0.00 0.00 0.00 96 1000.5
20190120060834 35 282 1.0 2.0 0.00 0.00 0.00 96 1000.5
20190120060323 35 282 0.0 0.0 0.00 0.00 0.00 96 1000.6
20190120055819 35 282 0.0 0.0 0.00 0.00 0.00 96 1000.9
20190120055332 35 282 0.0 0.0 0.00 0.00 0.00 96 1001.0
20190120054823 35 282 0.0 0.0 0.00 0.00 0.00 96 1001.1
20190120054318 35 282 0.0 1.0 0.00 0.00 0.00 96 1001.3
20190120053834 35 282 0.0 1.0 0.00 0.00 0.00 96 1001.5
20190120053327 35 282 0.0 0.0 0.00 0.00 0.00 96 1001.7
20190120052822 35 282 0.0 0.0 0.00 0.00 0.00 96 1002.0
20190120052335 35 282 0.0 0.0 0.00 0.00 0.00 96 1002.2
20190120051824 35 282 0.0 0.0 0.00 0.00 0.00 96 1002.4
20190120051318 35 282 0.0 1.0 0.00 0.00 0.00 96 1002.6
20190120050832 35 282 0.0 1.0 0.00 0.00 0.00 96 1002.5
20190120050327 35 282 0.0 1.0 0.00 0.00 0.00 96 1002.7
20190120045818 35 282 0.0 0.0 0.00 0.00 0.00 96 1003.0
20190120045331 35 282 0.0 0.0 0.00 0.00 0.00 96 1003.0
20190120044820 35 282 0.0 0.0 0.00 0.00 0.00 96 1003.0
20190120044333 35 282 0.0 0.0 0.00 0.00 0.00 96 1002.9
20190120043826 35 282 0.0 0.0 0.00 0.00 0.00 96 1002.8
20190120043317 35 282 0.0 0.0 0.00 0.00 0.00 96 1002.8
20190120042829 35 282 0.0 0.0 0.00 0.00 0.00 96 1002.8
20190120042327 35 282 0.0 0.0 0.00 0.00 0.00 96 1003.1
20190120041817 35 282 0.0 0.0 0.00 0.00 0.00 96 1003.5
20190120041330 35 282 0.0 0.0 0.00 0.00 0.00 96 1003.5
20190120040821 35 282 0.0 0.0 0.00 0.00 0.00 96 1003.6
20190120040330 35 282 0.0 0.0 0.00 0.00 0.00 96 1003.8
20190120035824 35 282 0.0 0.0 0.00 0.00 0.00 96 1004.0
20190120035337 35 282 0.0 0.0 0.00 0.00 0.00 96 1004.3
20190120034828 35 282 0.0 0.0 0.00 0.00 0.00 96 1004.3
20190120034325 35 281 0.0 0.0 0.00 0.00 0.00 96 1004.3
20190120033839 35 281 0.0 0.0 0.00 0.00 0.00 96 1004.3
20190120033333 35 281 0.0 0.0 0.00 0.00 0.00 96 1004.6
20190120032319 35 281 0.0 1.0 0.00 0.00 0.00 96 1004.8
20190120031830 35 281 0.0 1.0 0.00 0.00 0.00 96 1005.1
20190120031324 35 280 0.0 0.0 0.00 0.00 0.00 96 1005.2
20190120030836 35 280 0.0 0.0 0.00 0.00 0.00 96 1005.4
20190120030327 35 280 0.0 0.0 0.00 0.00 0.00 96 1005.4
20190120025820 35 280 0.0 0.0 0.00 0.00 0.00 96 1005.4
20190120025338 35 280 0.0 0.0 0.00 0.00 0.00 96 1005.4
20190120024828 35 280 0.0 1.0 0.00 0.00 0.00 96 1005.4
20190120024324 35 280 0.0 1.0 0.00 0.00 0.00 96 1005.4
20190120023838 35 280 0.0 1.0 0.00 0.00 0.00 96 1005.5
20190120023332 35 280 0.0 0.0 0.00 0.00 0.00 96 1005.9
20190120022826 35 280 0.0 0.0 0.00 0.00 0.00 96 1006.1
20190120022320 35 280 0.0 0.0 0.00 0.00 0.00 96 1005.9
20190120021833 35 280 0.0 0.0 0.00 0.00 0.00 96 1006.0
20190120021326 35 280 0.0 0.0 0.00 0.00 0.00 96 1006.1
20190120020824 35 280 0.0 0.0 0.00 0.00 0.00 96 1006.1
20190120020338 35 280 0.0 0.0 0.00 0.00 0.00 96 1006.3
20190120015832 35 280 0.0 0.0 0.00 0.00 0.00 96 1006.3
20190120015327 35 280 0.0 0.0 0.00 0.00 0.00 96 1006.4
20190120014834 35 280 0.0 0.0 0.00 0.00 0.00 96 1006.6
20190120013820 35 280 0.0 0.0 0.00 0.00 0.00 95 1007.0
20190120013338 35 280 0.0 0.0 0.00 0.00 0.00 95 1007.5
20190120012831 35 280 0.0 2.0 0.00 0.00 0.00 95 1007.6
20190120012325 35 280 0.0 2.0 0.00 0.00 0.00 95 1007.7
20190120011816 35 323 0.0 2.0 0.00 0.00 0.00 95 1008.2
20190120011329 35 325 0.0 0.0 0.00 0.00 0.00 95 1007.5
20190120010821 35 325 0.0 1.0 0.00 0.00 0.00 95 1007.6
20190120010331 35 325 0.0 2.0 0.00 0.00 0.00 95 1007.7
20190120005829 35 325 0.0 2.0 0.00 0.00 0.00 95 1007.7
20190120005342 35 325 0.0 2.0 0.00 0.00 0.00 95 1007.5
20190120004837 35 325 0.0 2.0 0.00 0.00 0.00 95 1008.5
20190120004329 35 2 1.0 3.0 0.00 0.00 0.00 95 1009.0
20190120003818 35 3 0.0 3.0 0.00 0.00 0.00 95 1008.9
20190120003330 35 7 0.0 1.0 0.00 0.00 0.00 95 1008.1
20190120002822 35 7 0.0 1.0 0.00 0.00 0.00 95 1008.3
20190120002335 35 7 0.0 2.0 0.00 0.00 0.00 95 1008.6
20190120001826 35 5 1.0 3.0 0.00 0.00 0.00 95 1009.0
20190120001322 35 9 0.0 3.0 0.00 0.00 0.00 95 1009.4
20190120000835 35 286 0.0 3.0 0.00 0.00 0.00 95 1009.5
20190120000328 35 286 0.0 3.0 0.00 0.00 0.00 95 1009.3
20190119235821 35 292 0.0 2.0 0.00 0.00 0.00 95 1009.2
20190119235318 35 18 0.0 3.0 0.00 0.00 0.00 95 1008.9
20190119234828 35 18 1.0 3.0 0.00 0.00 0.00 95 1008.9
20190119234321 35 18 0.0 3.0 0.00 0.00 0.00 95 1009.4
20190119233834 35 23 1.0 3.0 0.00 0.00 0.00 95 1009.4
20190119233327 35 265 0.0 3.0 0.00 0.00 0.00 94 1009.7
20190119232819 35 264 0.0 2.0 0.00 0.00 0.00 94 1009.9